Time,TemperatureF,DewpointF,PressureIn,WindDirection,WindDirectionDegrees,WindSpeedMPH,WindSpeedGustMPH,Humidity,HourlyPrecipIn,Conditions,Clouds,dailyrainin,SoftwareType,DateUTC
2013-03-04 00:01:00,48.0,46.0,30.10,ENE,62,2.0,7.0,94,-99.99,,,-99.99,,2013-03-04 08:01:00,
2013-03-04 00:11:00,48.0,46.0,30.10,ENE,61,2.0,5.0,94,-99.99,,,-99.99,,2013-03-04 08:11:00,
2013-03-04 00:21:00,48.0,46.0,30.10,ENE,61,2.0,5.0,94,-99.99,,,-99.99,,2013-03-04 08:21:00,
2013-03-04 00:31:00,48.0,46.0,30.10,ENE,58,1.0,3.0,94,-99.99,,,-99.99,,2013-03-04 08:31:00,
2013-03-04 00:41:00,48.0,46.0,30.10,ENE,58,1.0,3.0,94,-99.99,,,-99.99,,2013-03-04 08:41:00,
2013-03-04 00:52:00,48.0,46.0,30.11,East,97,2.0,7.0,94,-99.99,,,-99.99,,2013-03-04 08:52:00,
2013-03-04 01:01:00,48.0,46.0,30.11,ESE,103,2.0,6.0,94,-99.99,,,-99.99,,2013-03-04 09:01:00,
2013-03-04 01:11:00,48.0,46.0,30.11,ESE,103,2.0,6.0,94,-99.99,,,-99.99,,2013-03-04 09:11:00,
2013-03-04 01:21:00,48.0,46.0,30.11,ESE,103,2.0,6.0,94,-99.99,,,-99.99,,2013-03-04 09:21:00,
2013-03-04 01:31:00,48.0,46.0,30.11,ESE,103,2.0,6.0,94,-99.99,,,-99.99,,2013-03-04 09:31:00,
2013-03-04 02:42:00,47.0,46.0,30.11,ESE,112,0.0,0.0,96,-99.99,,,-99.99,,2013-03-04 10:42:00,
2013-03-04 02:52:00,47.0,46.0,30.11,ESE,112,0.0,0.0,96,-99.99,,,-99.99,,2013-03-04 10:52:00,
2013-03-04 03:01:00,47.0,46.0,30.10,ENE,68,3.0,3.0,96,-99.99,,,-99.99,,2013-03-04 11:01:00,
2013-03-04 03:11:00,47.0,46.0,30.10,ENE,68,3.0,3.0,96,-99.99,,,-99.99,,2013-03-04 11:11:00,
2013-03-04 03:21:00,47.0,46.0,30.10,NE,44,0.0,6.0,96,-99.99,,,-99.99,,2013-03-04 11:21:00,
2013-03-04 03:31:00,47.0,46.0,30.10,NE,45,0.0,3.0,96,-99.99,,,-99.99,,2013-03-04 11:31:00,
2013-03-04 03:41:00,47.0,46.0,30.10,NE,45,0.0,3.0,96,-99.99,,,-99.99,,2013-03-04 11:41:00,
2013-03-04 03:52:00,47.0,46.0,30.10,NE,45,0.0,2.0,96,-99.99,,,-99.99,,2013-03-04 11:52:00,
2013-03-04 04:01:00,47.0,46.0,30.11,NE,45,0.0,0.0,96,-99.99,,,-99.99,,2013-03-04 12:01:00,
2013-03-04 04:11:00,47.0,46.0,30.11,NE,45,0.0,0.0,96,-99.99,,,-99.99,,2013-03-04 12:11:00,
2013-03-04 04:22:00,47.0,46.0,30.10,NE,45,0.0,2.0,96,-99.99,,,-99.99,,2013-03-04 12:22:00,
2013-03-04 04:32:00,47.0,46.0,30.11,NE,45,0.0,0.0,96,-99.99,,,-99.99,,2013-03-04 12:32:00,
2013-03-04 04:42:00,47.0,46.0,30.11,NE,45,0.0,0.0,96,-99.99,,,-99.99,,2013-03-04 12:42:00,
2013-03-04 04:52:00,47.0,46.0,30.11,NE,45,0.0,0.0,96,-99.99,,,-99.99,,2013-03-04 12:52:00,
2013-03-04 05:02:00,47.0,46.0,30.11,NE,45,0.0,0.0,96,-99.99,,,-99.99,,2013-03-04 13:02:00,
2013-03-04 05:11:00,47.0,46.0,30.11,NE,45,0.0,0.0,96,-99.99,,,-99.99,,2013-03-04 13:11:00,
2013-03-04 05:21:00,47.0,46.0,30.11,NE,45,0.0,0.0,96,-99.99,,,-99.99,,2013-03-04 13:21:00,
2013-03-04 05:31:00,47.0,46.0,30.11,NE,45,0.0,3.0,95,-99.99,,,-99.99,,2013-03-04 13:31:00,
2013-03-04 05:42:00,47.0,46.0,30.11,NE,45,0.0,3.0,95,-99.99,,,-99.99,,2013-03-04 13:42:00,
2013-03-04 05:52:00,47.0,46.0,30.11,NE,45,0.0,1.0,96,-99.99,,,-99.99,,2013-03-04 13:52:00,
2013-03-04 06:01:00,47.0,46.0,30.11,NE,45,0.0,1.0,96,-99.99,,,-99.99,,2013-03-04 14:01:00,
2013-03-04 06:11:00,47.0,46.0,30.11,NE,45,0.0,1.0,96,-99.99,,,-99.99,,2013-03-04 14:11:00,
2013-03-04 06:21:00,47.0,46.0,30.12,NE,45,0.0,1.0,95,-99.99,,,-99.99,,2013-03-04 14:21:00,
2013-03-04 06:32:00,47.0,46.0,30.12,NE,45,0.0,1.0,95,-99.99,,,-99.99,,2013-03-04 14:32:00,
2013-03-04 06:41:00,47.0,46.0,30.12,NE,45,0.0,1.0,95,-99.99,,,-99.99,,2013-03-04 14:41:00,
2013-03-04 06:52:00,47.0,46.0,30.12,NE,45,1.0,1.0,95,-99.99,,,-99.99,,2013-03-04 14:52:00,
2013-03-04 07:01:00,47.0,46.0,30.12,NE,45,0.0,0.0,95,-99.99,,,-99.99,,2013-03-04 15:01:00,
2013-03-04 07:11:00,47.0,46.0,30.12,NE,45,0.0,0.0,95,-99.99,,,-99.99,,2013-03-04 15:11:00,
2013-03-04 07:21:00,47.0,46.0,30.12,NE,45,0.0,2.0,95,-99.99,,,-99.99,,2013-03-04 15:21:00,
2013-03-04 07:31:00,47.0,46.0,30.13,NE,45,0.0,0.0,95,-99.99,,,-99.99,,2013-03-04 15:31:00,
2013-03-04 07:41:00,47.0,46.0,30.13,NE,45,0.0,0.0,95,-99.99,,,-99.99,,2013-03-04 15:41:00,
2013-03-04 07:51:00,47.0,46.0,30.13,NE,45,0.0,2.0,95,-99.99,,,-99.99,,2013-03-04 15:51:00,
2013-03-04 08:02:00,48.0,47.0,30.13,NE,45,0.0,0.0,95,-99.99,,,-99.99,,2013-03-04 16:02:00,
2013-03-04 08:11:00,48.0,47.0,30.13,NE,45,0.0,0.0,95,-99.99,,,-99.99,,2013-03-04 16:11:00,
2013-03-04 08:21:00,48.0,47.0,30.14,NE,45,1.0,1.0,95,-99.99,,,-99.99,,2013-03-04 16:21:00,
2013-03-04 08:31:00,48.0,47.0,30.14,NE,45,2.0,3.0,95,-99.99,,,-99.99,,2013-03-04 16:31:00,
2013-03-04 08:41:00,48.0,47.0,30.14,NE,45,2.0,3.0,95,-99.99,,,-99.99,,2013-03-04 16:41:00,
2013-03-04 08:52:00,48.0,47.0,30.14,NE,45,2.0,3.0,95,-99.99,,,-99.99,,2013-03-04 16:52:00,
2013-03-04 09:02:00,48.0,46.0,30.16,West,268,0.0,1.0,94,-99.99,,,-99.99,,2013-03-04 17:02:00,
2013-03-04 09:11:00,48.0,46.0,30.16,West,268,0.0,1.0,94,-99.99,,,-99.99,,2013-03-04 17:11:00,
2013-03-04 09:22:00,48.0,46.0,30.15,West,268,0.0,1.0,94,-99.99,,,-99.99,,2013-03-04 17:22:00,
2013-03-04 09:31:00,48.0,46.0,30.15,ESE,109,0.0,2.0,94,-99.99,,,-99.99,,2013-03-04 17:31:00,
2013-03-04 09:42:00,48.0,46.0,30.15,ESE,109,0.0,2.0,94,-99.99,,,-99.99,,2013-03-04 17:42:00,
2013-03-04 09:52:00,49.0,47.0,30.14,NNE,30,0.0,5.0,92,-99.99,,,-99.99,,2013-03-04 17:52:00,
2013-03-04 10:01:00,49.0,47.0,30.14,NNE,30,0.0,5.0,92,-99.99,,,-99.99,,2013-03-04 18:01:00,
2013-03-04 10:11:00,49.0,47.0,30.14,NNE,30,0.0,5.0,92,-99.99,,,-99.99,,2013-03-04 18:11:00,
2013-03-04 10:21:00,49.0,46.0,30.14,NE,49,1.0,8.0,91,-99.99,,,-99.99,,2013-03-04 18:21:00,
2013-03-04 10:32:00,50.0,47.0,30.14,NE,40,2.0,7.0,90,-99.99,,,-99.99,,2013-03-04 18:32:00,
2013-03-04 10:42:00,50.0,47.0,30.14,NE,40,2.0,7.0,90,-99.99,,,-99.99,,2013-03-04 18:42:00,
2013-03-04 10:51:00,50.0,47.0,30.14,NE,40,2.0,7.0,90,-99.99,,,-99.99,,2013-03-04 18:51:00,
2013-03-04 11:01:00,51.0,47.0,30.15,NE,38,1.0,5.0,86,-99.99,,,-99.99,,2013-03-04 19:01:00,
2013-03-04 11:11:00,51.0,47.0,30.15,NE,38,1.0,5.0,86,-99.99,,,-99.99,,2013-03-04 19:11:00,
2013-03-04 11:21:00,51.0,47.0,30.15,ESE,116,1.0,7.0,85,-99.99,,,-99.99,,2013-03-04 19:21:00,
2013-03-04 11:31:00,51.0,46.0,30.15,ENE,58,0.0,5.0,84,-99.99,,,-99.99,,2013-03-04 19:31:00,
2013-03-04 11:41:00,51.0,46.0,30.15,ENE,58,0.0,5.0,84,-99.99,,,-99.99,,2013-03-04 19:41:00,
2013-03-04 11:51:00,51.0,46.0,30.15,SSE,158,1.0,3.0,82,-99.99,,,-99.99,,2013-03-04 19:51:00,
2013-03-04 12:01:00,52.0,46.0,30.15,SSW,210,0.0,3.0,80,-99.99,,,-99.99,,2013-03-04 20:01:00,
2013-03-04 12:11:00,52.0,46.0,30.15,SSW,210,0.0,3.0,80,-99.99,,,-99.99,,2013-03-04 20:11:00,
2013-03-04 12:21:00,52.0,46.0,30.15,SSW,210,0.0,3.0,80,-99.99,,,-99.99,,2013-03-04 20:21:00,
2013-03-04 12:32:00,53.0,46.0,30.14,SSE,147,3.0,7.0,77,-99.99,,,-99.99,,2013-03-04 20:32:00,
2013-03-04 12:41:00,53.0,46.0,30.14,SSE,147,3.0,7.0,77,-99.99,,,-99.99,,2013-03-04 20:41:00,
2013-03-04 12:52:00,54.0,47.0,30.13,South,179,2.0,7.0,77,-99.99,,,-99.99,,2013-03-04 20:52:00,
2013-03-04 13:01:00,57.0,48.0,30.12,WSW,244,2.0,5.0,71,-99.99,,,-99.99,,2013-03-04 21:01:00,
2013-03-04 13:11:00,57.0,48.0,30.12,WSW,244,2.0,5.0,71,-99.99,,,-99.99,,2013-03-04 21:11:00,
2013-03-04 13:21:00,57.0,48.0,30.11,SW,217,5.0,8.0,72,-99.99,,,-99.99,,2013-03-04 21:21:00,
2013-03-04 13:31:00,59.0,49.0,30.11,NE,54,0.0,6.0,70,-99.99,,,-99.99,,2013-03-04 21:31:00,
2013-03-04 13:41:00,59.0,49.0,30.11,NE,54,0.0,6.0,70,-99.99,,,-99.99,,2013-03-04 21:41:00,
2013-03-04 13:52:00,59.0,48.0,30.10,NW,305,4.0,5.0,68,-99.99,,,-99.99,,2013-03-04 21:52:00,
2013-03-04 14:01:00,58.0,48.0,30.09,SW,227,6.0,8.0,70,-99.99,,,-99.99,,2013-03-04 22:01:00,
2013-03-04 14:11:00,58.0,48.0,30.09,SW,227,6.0,8.0,70,-99.99,,,-99.99,,2013-03-04 22:11:00,
2013-03-04 14:21:00,58.0,48.0,30.09,SSW,212,6.0,10.0,70,-99.99,,,-99.99,,2013-03-04 22:21:00,
2013-03-04 14:31:00,58.0,49.0,30.08,SSW,205,5.0,10.0,73,-99.99,,,-99.99,,2013-03-04 22:31:00,
2013-03-04 14:42:00,58.0,49.0,30.08,SSW,205,5.0,10.0,73,-99.99,,,-99.99,,2013-03-04 22:42:00,
2013-03-04 14:51:00,58.0,49.0,30.08,SW,230,5.0,13.0,71,-99.99,,,-99.99,,2013-03-04 22:51:00,
2013-03-04 15:01:00,57.0,48.0,30.08,SW,227,17.0,17.0,72,-99.99,,,-99.99,,2013-03-04 23:01:00,
2013-03-04 15:11:00,57.0,48.0,30.08,SW,227,17.0,17.0,72,-99.99,,,-99.99,,2013-03-04 23:11:00,
2013-03-04 15:21:00,55.0,47.0,30.08,SW,229,5.0,17.0,74,-99.99,,,-99.99,,2013-03-04 23:21:00,
2013-03-04 15:31:00,55.0,47.0,30.08,SW,227,9.0,14.0,74,-99.99,,,-99.99,,2013-03-04 23:31:00,
2013-03-04 15:41:00,55.0,47.0,30.08,SW,227,9.0,14.0,74,-99.99,,,-99.99,,2013-03-04 23:41:00,
2013-03-04 15:52:00,55.0,47.0,30.08,SW,227,9.0,14.0,74,-99.99,,,-99.99,,2013-03-04 23:52:00,
2013-03-04 16:01:00,55.0,47.0,30.08,SW,227,9.0,14.0,74,-99.99,,,-99.99,,2013-03-05 00:01:00,
2013-03-04 16:11:00,55.0,47.0,30.08,SW,227,9.0,14.0,74,-99.99,,,-99.99,,2013-03-05 00:11:00,
2013-03-04 16:21:00,53.0,46.0,30.08,WSW,246,4.0,12.0,77,-99.99,,,-99.99,,2013-03-05 00:21:00,
2013-03-04 16:32:00,53.0,46.0,30.08,WSW,251,7.0,14.0,78,-99.99,,,-99.99,,2013-03-05 00:32:00,
2013-03-04 16:41:00,53.0,46.0,30.08,WSW,251,7.0,14.0,78,-99.99,,,-99.99,,2013-03-05 00:41:00,
2013-03-04 16:51:00,52.0,45.0,30.09,West,274,10.0,14.0,78,-99.99,,,-99.99,,2013-03-05 00:51:00,
2013-03-04 17:01:00,51.0,45.0,30.08,SW,227,5.0,14.0,80,-99.99,,,-99.99,,2013-03-05 01:01:00,
2013-03-04 17:11:00,51.0,45.0,30.08,SW,227,5.0,14.0,80,-99.99,,,-99.99,,2013-03-05 01:11:00,
2013-03-04 17:21:00,51.0,45.0,30.09,WSW,237,9.0,12.0,81,-99.99,,,-99.99,,2013-03-05 01:21:00,
2013-03-04 17:32:00,50.0,44.0,30.09,WSW,247,6.0,12.0,81,-99.99,,,-99.99,,2013-03-05 01:32:00,
2013-03-04 17:41:00,50.0,44.0,30.09,WSW,247,6.0,12.0,81,-99.99,,,-99.99,,2013-03-05 01:41:00,
2013-03-04 17:51:00,50.0,44.0,30.09,WSW,247,6.0,12.0,81,-99.99,,,-99.99,,2013-03-05 01:51:00,
2013-03-04 18:01:00,50.0,45.0,30.09,SW,232,6.0,10.0,84,-99.99,,,-99.99,,2013-03-05 02:01:00,
2013-03-04 18:11:00,50.0,45.0,30.09,SW,232,6.0,10.0,84,-99.99,,,-99.99,,2013-03-05 02:11:00,
2013-03-04 18:21:00,50.0,45.0,30.09,SW,232,6.0,10.0,84,-99.99,,,-99.99,,2013-03-05 02:21:00,
2013-03-04 18:32:00,49.0,45.0,30.10,SSW,208,6.0,10.0,85,-99.99,,,-99.99,,2013-03-05 02:32:00,
2013-03-04 18:41:00,49.0,45.0,30.10,SSW,208,6.0,10.0,85,-99.99,,,-99.99,,2013-03-05 02:41:00,
2013-03-04 18:52:00,48.0,44.0,30.10,SSW,206,5.0,8.0,85,-99.99,,,-99.99,,2013-03-05 02:52:00,
2013-03-04 19:01:00,48.0,44.0,30.10,South,191,1.0,4.0,85,-99.99,,,-99.99,,2013-03-05 03:01:00,
2013-03-04 19:11:00,48.0,44.0,30.10,South,191,1.0,4.0,85,-99.99,,,-99.99,,2013-03-05 03:11:00,
2013-03-04 19:21:00,48.0,44.0,30.10,SSW,200,0.0,5.0,85,-99.99,,,-99.99,,2013-03-05 03:21:00,
2013-03-04 19:31:00,48.0,44.0,30.09,SW,219,2.0,6.0,85,-99.99,,,-99.99,,2013-03-05 03:31:00,
2013-03-04 19:41:00,48.0,44.0,30.09,SW,219,2.0,6.0,85,-99.99,,,-99.99,,2013-03-05 03:41:00,
2013-03-04 19:51:00,48.0,44.0,30.09,SSE,167,1.0,3.0,85,-99.99,,,-99.99,,2013-03-05 03:51:00,
2013-03-04 20:01:00,47.0,43.0,30.09,SSE,167,0.0,1.0,86,-99.99,,,-99.99,,2013-03-05 04:01:00,
2013-03-04 20:11:00,47.0,43.0,30.09,SSE,167,0.0,1.0,86,-99.99,,,-99.99,,2013-03-05 04:11:00,
2013-03-04 20:21:00,47.0,43.0,30.09,SSE,167,0.0,1.0,85,-99.99,,,-99.99,,2013-03-05 04:21:00,
2013-03-04 20:31:00,47.0,43.0,30.09,SSE,167,0.0,0.0,86,-99.99,,,-99.99,,2013-03-05 04:31:00,
2013-03-04 20:41:00,47.0,43.0,30.09,SSE,167,0.0,0.0,86,-99.99,,,-99.99,,2013-03-05 04:41:00,
2013-03-04 20:51:00,47.0,43.0,30.08,SSE,167,0.0,0.0,86,-99.99,,,-99.99,,2013-03-05 04:51:00,
2013-03-04 21:01:00,46.0,42.0,30.08,SSE,161,0.0,1.0,87,-99.99,,,-99.99,,2013-03-05 05:01:00,
2013-03-04 21:11:00,46.0,42.0,30.08,SSE,161,0.0,1.0,87,-99.99,,,-99.99,,2013-03-05 05:11:00,
2013-03-04 21:22:00,46.0,42.0,30.08,SSE,161,1.0,1.0,87,-99.99,,,-99.99,,2013-03-05 05:22:00,
2013-03-04 21:31:00,46.0,42.0,30.08,SSE,161,0.0,1.0,87,-99.99,,,-99.99,,2013-03-05 05:31:00,
2013-03-04 21:41:00,46.0,42.0,30.08,SSE,161,0.0,1.0,87,-99.99,,,-99.99,,2013-03-05 05:41:00,
2013-03-04 21:52:00,45.0,42.0,30.08,SSE,152,0.0,2.0,88,-99.99,,,-99.99,,2013-03-05 05:52:00,
2013-03-04 22:01:00,45.0,42.0,30.08,SSE,161,0.0,2.0,88,-99.99,,,-99.99,,2013-03-05 06:01:00,
2013-03-04 22:11:00,45.0,42.0,30.08,SSE,161,0.0,2.0,88,-99.99,,,-99.99,,2013-03-05 06:11:00,
2013-03-04 22:21:00,45.0,42.0,30.08,SSE,161,0.0,2.0,88,-99.99,,,-99.99,,2013-03-05 06:21:00,
2013-03-04 22:31:00,44.0,41.0,30.09,SSE,161,1.0,1.0,89,-99.99,,,-99.99,,2013-03-05 06:31:00,
2013-03-04 22:42:00,44.0,41.0,30.09,SSE,161,1.0,1.0,89,-99.99,,,-99.99,,2013-03-05 06:42:00,
2013-03-04 22:52:00,44.0,41.0,30.09,SSE,161,0.0,0.0,89,-99.99,,,-99.99,,2013-03-05 06:52:00,
2013-03-04 23:01:00,43.0,40.0,30.09,SSE,161,0.0,0.0,89,-99.99,,,-99.99,,2013-03-05 07:01:00,
2013-03-04 23:11:00,43.0,40.0,30.09,SSE,161,0.0,0.0,89,-99.99,,,-99.99,,2013-03-05 07:11:00,
2013-03-04 23:21:00,43.0,40.0,30.09,SSE,161,0.0,1.0,90,-99.99,,,-99.99,,2013-03-05 07:21:00,
2013-03-04 23:31:00,43.0,41.0,30.09,ENE,78,0.0,2.0,91,-99.99,,,-99.99,,2013-03-05 07:31:00,
2013-03-04 23:41:00,43.0,41.0,30.09,ENE,78,0.0,2.0,91,-99.99,,,-99.99,,2013-03-05 07:41:00,
2013-03-04 23:51:00,43.0,41.0,30.09,NE,55,0.0,2.0,91,-99.99,,,-99.99,,2013-03-05 07:51:00,